Weather History for Lake Hood, AK

Change the Weather History Date:

Friday, January 31, 2014

  Actual Average Record
Temperature  
Mean Temperature 19 °F -  
Max Temperature 23 °F 22 °F 39 °F (1997)
Min Temperature 15 °F 12 °F -15 °F (1999)
Degree Days  
Heating Degree Days 46    
Moisture  
Dew Point 15 °F    
Average Humidity 86    
Maximum Humidity 93    
Minimum Humidity 78    
Precipitation  
Precipitation 0.00 in - - ()
Sea Level Pressure  
Sea Level Pressure 30.27 in    
Wind  
Wind Speed 1 mph (NNE)    
Max Wind Speed 5 mph    
Max Gust Speed -    
Visibility 6 miles    
Events Fog    
Averages and records for this station are not official NWS values.
T = Trace of Precipitation, MM = Missing Value Source: NWS Daily Summary

Daily Weather History Graph

Daily Weather History Graph

Search for Another Location

Airport:

Trip Planner

Search our weather history database for the weather conditions in past years. The results will help you decide how hot, cold, wet, or windy it might be!

Date:

Astronomy

Jan. 31, 2014 Rise Set
Actual Time 9:22 AM AKST 5:05 PM AKST
Civil Twilight 8:32 AM AKST 5:55 PM AKST
Nautical Twilight 7:39 AM AKST 6:48 PM AKST
Astronomical Twilight 6:48 AM AKST 7:38 PM AKST
Moon 9:04 AM AKST (1/31) 7:23 PM AKST (1/31)
Length of Visible Light 9h 23m
Length of Day
7h 43m
New Moon, 1% of the Moon is Illuminated
Jan 31
New Moon
Feb 6
First Quarter
Feb 14
Full
Feb 22
Last Quarter
Feb 28
New

Hourly Weather History & Observations

Time (AKST) Temp. Windchill Dew Point Humidity Pressure Visibility Wind Dir Wind Speed Gust Speed Precip Events Conditions
12:53 AM 18.0 °F - 14.0 °F 84% 30.24 in 10.0 mi Calm Calm - N/A   Clear
1:53 AM 17.1 °F - 12.9 °F 84% 30.24 in 10.0 mi Calm Calm - N/A   Clear
3:53 AM 18.0 °F 12.7 °F 12.9 °F 81% 30.24 in 10.0 mi WNW 3.5 mph - N/A   Clear
4:53 AM 18.0 °F - 12.9 °F 81% 30.25 in 10.0 mi Calm Calm - N/A   Clear
5:53 AM 15.1 °F - 10.9 °F 84% 30.24 in 10.0 mi Calm Calm - N/A   Clear
6:53 AM 15.1 °F - 10.9 °F 84% 30.25 in 9.0 mi Calm Calm - N/A   Clear
7:53 AM 16.0 °F - 12.0 °F 84% 30.25 in 10.0 mi Calm Calm - N/A   Partly Cloudy
8:08 AM 17.6 °F - 14.0 °F 86% 30.25 in 10.0 mi Calm Calm - N/A   Mostly Cloudy
8:48 AM 17.6 °F - 14.0 °F 86% 30.25 in 0.5 mi Calm Calm - N/A   Overcast
8:53 AM 19.0 °F - 16.0 °F 88% 30.26 in 0.5 mi Calm Calm - N/A Fog Light Freezing Fog
9:02 AM 19.4 °F - 15.8 °F 86% 30.25 in 0.2 mi Calm Calm - N/A Fog Light Freezing Fog
9:19 AM 19.4 °F - 15.8 °F 86% 30.25 in 0.2 mi Calm Calm - N/A Fog Light Freezing Fog
9:40 AM 17.6 °F 10.7 °F 15.8 °F 93% 30.25 in 0.5 mi NE 4.6 mph - N/A   Overcast
9:47 AM 17.6 °F 12.3 °F 15.8 °F 93% 30.26 in 0.2 mi ENE 3.5 mph - N/A Fog Light Freezing Fog
9:53 AM 18.0 °F - 15.1 °F 88% 30.26 in 0.2 mi Calm Calm - N/A Fog Light Freezing Fog
10:02 AM 17.6 °F - 15.8 °F 93% 30.26 in 0.2 mi Calm Calm - N/A Fog Light Freezing Fog
10:33 AM 17.6 °F - 15.8 °F 93% 30.26 in 0.2 mi Calm Calm - N/A Fog Light Freezing Fog
10:43 AM 19.4 °F - 17.6 °F 93% 30.26 in 0.5 mi Calm Calm - N/A Fog Light Freezing Fog
10:48 AM 19.4 °F - 17.6 °F 93% 30.26 in 2.0 mi Calm Calm - N/A   Overcast
10:53 AM 19.9 °F 14.9 °F 16.0 °F 85% 30.26 in 0.5 mi NNE 3.5 mph - N/A   Overcast
11:02 AM 19.4 °F - 17.6 °F 93% 30.26 in 0.2 mi Calm Calm - N/A Fog Light Freezing Fog
11:53 AM 19.9 °F - 17.1 °F 89% 30.28 in 0.2 mi Calm Calm - N/A Fog Light Freezing Fog
12:13 PM 21.2 °F - 17.6 °F 86% 30.28 in 0.5 mi Calm Calm - N/A   Mostly Cloudy
12:22 PM 21.2 °F - 17.6 °F 86% 30.28 in 6.0 mi Calm Calm - N/A   Scattered Clouds
12:53 PM 21.9 °F - 18.0 °F 85% 30.27 in 10.0 mi Calm Calm - N/A   Clear
1:53 PM 21.9 °F 17.2 °F 18.0 °F 85% 30.28 in 10.0 mi North 3.5 mph - N/A   Clear
2:53 PM 23.0 °F 18.4 °F 19.0 °F 85% 30.27 in 10.0 mi NNE 3.5 mph - N/A   Clear
3:53 PM 23.0 °F - 17.1 °F 78% 30.28 in 10.0 mi Calm Calm - N/A   Clear
4:53 PM 21.9 °F - 16.0 °F 78% 30.29 in 10.0 mi Calm Calm - N/A   Clear
5:53 PM 21.0 °F - 16.0 °F 81% 30.29 in 10.0 mi Calm Calm - N/A   Clear
6:53 PM 19.9 °F - 15.1 °F 81% 30.30 in 9.0 mi Calm Calm - N/A   Clear
7:53 PM 18.0 °F - 14.0 °F 84% 30.30 in 8.0 mi Calm Calm - N/A   Clear
8:53 PM 18.0 °F - 12.9 °F 81% 30.30 in 9.0 mi Calm Calm - N/A   Clear
9:53 PM 17.1 °F - 12.0 °F 81% 30.31 in 10.0 mi Calm Calm - N/A   Clear
10:53 PM 16.0 °F - 10.9 °F 81% 30.31 in 10.0 mi Calm Calm - N/A   Clear
11:53 PM 16.0 °F - 10.9 °F 81% 30.32 in 8.0 mi Calm Calm - N/A   Clear